Regional Weather Roundup
Issued by NWS

Home | Current Version | Previous Version | Text Only | Print | Product List | Glossary On
Versions: 1 2 3 4 5 6 7 8 9 10 11 12 13 14 15 16 17 18 19 20 21 22 23 24 25 26 27 28 29 30 31 32 33 34 35 36 37 38 39 40 41 42 43 44 45 46 47 48 49 50
000
ASUS46 KSEW 291910
RWRWA

WASHINGTON REGIONAL WEATHER ROUNDUP
NATIONAL WEATHER SERVICE SEATTLE WA
1200 PM PDT SAT AUG 29 2015

NOTE:"FAIR" INDICATES FEW OR NO CLOUDS BELOW 12,000 FEET WITH NO
SIGNIFICANT WEATHER AND/OR OBSTRUCTIONS TO VISIBILITY.

WAZ505-507>509-292000-
SEATTLE, TACOMA, EVERETT, AND VICINITY

CITY           SKY/WX    TMP DP  RH WIND       PRES   REMARKS
EVERETT        LGT RAIN  66  54  65 S25G48    29.57R
BOEING FIELD   CLOUDY    72  50  45 S22G39    29.62R
RENTON         LGT RAIN  71  51  49 S18G35    29.61R
SEATAC AIRPORT CLOUDY    69  51  52 S24G39    29.64R
JBLM-MCCHORD   MIX PCPN  70  54  56 S21G49    29.65R
PUYALLUP       NOT AVBL
BREMERTON      CLOUDY    61  57  88 S18G29    29.64R
JBLM-FT LEWIS  LGT RAIN  68  56  65 S23G40    29.64R
TACOMA NARROWS CLOUDY    66  54  65 S35G45    29.65R
$$

WAZ001-503-506-510-514-515-292000-
NORTH INTERIOR

CITY           SKY/WX    TMP DP  RH WIND       PRES   REMARKS
BELLINGHAM     PTSUNNY   74  53  48 SE29G53   29.46S
FRIDAY HARBOR  LGT RAIN  66  55  67 SE26G40   29.45R
EASTSOUND      PTSUNNY   70  54  56 S15G37    29.43R
PORT ANGELES   PTSUNNY   74  50  42 SW28G43   29.40R
PORT TOWNSEND  PTSUNNY   66  59  77 S18G38    29.49R
NAS WHIDBEY    LGT RAIN  68  56  65 SE43G55   29.54R
ARLINGTON      CLOUDY    72  50  46 S28G48    29.55R
BURLINGTON     PTSUNNY   72  54  53 S25G49    29.52R
$$

WAZ020-022-039-040-504-511-512-292000-
SOUTHWEST INTERIOR

CITY           SKY/WX    TMP DP  RH WIND       PRES   REMARKS
SHELTON        LGT RAIN  62  58  86 S18G28    29.60R FOG
OLYMPIA        CLOUDY    61  58  90 S22G29    29.67R
CHEHALIS       FOG       61  59  94 SW13G26   29.71R VSB 1/2
KELSO          NOT AVBL
VANCOUVER      PTSUNNY   70  53  54 SW12G23   29.78R
SCAPPOOSE, OR  CLOUDY    69  54  58 SW14G22   29.77R
PORTLAND, OR   PTSUNNY   71  55  56 S24G33    29.78R
$$

WAZ021-516-517-292000-
WASHINGTON COAST

CITY           SKY/WX    TMP DP  RH WIND       PRES   REMARKS
FORKS          LGT RAIN  61  59  93 S18G40    29.46R VSB 3/4
HOQUIAM        CLOUDY    63  58  83 S32G47    29.63R HAZE
ASTORIA, OR    CLOUDY    64  59  83 S26G47    29.69R
$$

WAZ019-023-024-040-518-519-292000-
CASCADE MOUNTAINS AND COLUMBIA GORGE

CITY           SKY/WX    TMP DP  RH WIND       PRES   REMARKS
TROUTDALE, OR  PTSUNNY   72  51  47 S22G36    29.80R
THE DALLES, OR CLOUDY    77  48  35 W9        29.75R
$$

WAZ026-027-041>044-520-521-292000-
EAST SLOPES

CITY           SKY/WX    TMP DP  RH WIND       PRES   REMARKS
OMAK           CLOUDY    69  50  50 VRB6      29.58F
WENATCHEE      CLOUDY    76  41  28 E5        29.63R
ELLENSBURG     PTSUNNY   76  41  28 SW22G37   29.69R
YAKIMA         PTSUNNY   75  44  33 SW15G36   29.73R
$$

WAZ028-034-035-292000-
COLUMBIA BASIN

CITY           SKY/WX    TMP DP  RH WIND       PRES   REMARKS
EPHRATA        CLOUDY    71  47  42 SW21G28   29.67R
MOSES LAKE     CLOUDY    67  49  52 S16G26    29.70R
PASCO          PTSUNNY   76  49  38 SW18G28   29.75R BLWGDUST
HERMISTON, OR  PTSUNNY   75  53  46 W17G26    29.75R
$$

WAZ036>038-292000-
NORTHEAST WASHINGTON

CITY           SKY/WX    TMP DP  RH WIND       PRES   REMARKS
SPOKANE GEIGER DUST      73  43  33 W33G48    29.76R VSB 1
SPOKANE FELTS  CLOUDY    77  47  34 W16G39    29.75R DUST
FAIRCHILD AFB  HAZE      72  43  35 SW25G36   29.78R VSB 3/4
COEURDALENE,ID CLOUDY    79  45  29 W30G44    29.72R
DEER PARK      CLOUDY    77  45  32 SW21G32   29.71R HAZE
$$

WAZ029>033-292000-
SOUTHEAST WASHINGTON

CITY           SKY/WX    TMP DP  RH WIND       PRES   REMARKS
PULLMAN        CLOUDY    72  47  40 W15G33    29.83R HAZE
LEWISTON, ID   CLOUDY    78  48  34 NW23G31   29.73R
WALLA WALLA    CLOUDY    75  53  46 W14       29.81R
PENDLETON, OR  CLOUDY    73  54  51 NW9       29.81R
$$


USA.gov is the U.S. government's official web portal to all federal, state and local government web resources and services.